User: anonymous   Login
Location: Newark
(33.4453°N, 112.0669°W)
Time: 18:43:30
(UTC+00:00)
Language:

SR - Orbit

View from above orbital plane
View from above orbital plane
View from above satellite
View from above satellite

Ground track
Ground track

The orbit data is extracted from the following two-line orbital elements,

1    46U 60007B   20047.38638929 -.00000079 +00000-0 +77345-5 0  9992
2    46 066.6914 016.3332 0215225 223.7089 134.6805 14.49273871121423
Epoch (UTC): 16 February 2020 09:16:24
Eccentricity: 0.0215225
inclination: 66.6914°
perigee height: 575 km
apogee height: 881 km
right ascension of ascending node: 16.3332°
argument of perigee: 223.7089°
revolutions per day: 14.49273871
mean anomaly at epoch: 134.6805°
orbit number at epoch: 12142

The dashed part of the orbit path shows where the satellite is in the earth's shadow,  

DLR